Regional Weather Roundup
Issued by NWS

Home | Current Version | Previous Version | Graphics & Text | Print | Product List | Glossary On
Versions: 1 2 3 4 5 6 7 8 9 10 11 12 13 14 15 16 17 18 19 20 21 22 23 24 25 26 27 28 29 30 31 32 33 34 35 36 37 38 39 40 41 42 43 44 45 46 47 48 49 50
000
ASUS43 KFSD 051602
RWRSD

WEATHER ROUNDUP FOR SOUTH DAKOTA
NATIONAL WEATHER SERVICE SIOUX FALLS SD
1100 AM CDT SUN JUL 05 2015

NOTE: "FAIR" INDICATES FEW OR NO CLOUDS BELOW 12,000 FEET WITH NO
SIGNIFICANT WEATHER AND/OR OBSTRUCTIONS TO VISIBILITY.


SDZ001>005-009-010-012>017-051700-
NORTHWEST AND NORTH CENTRAL SOUTH DAKOTA

CITY           SKY/WX    TMP DP  RH WIND       PRES   REMARKS
BUFFALO          N/A     75  61  61 NE23G29   29.81R
FAITH            N/A     69  63  81 E20G30    29.71F
MOBRIDGE       PTSUNNY   80  73  79 NW14      29.78R
$$

SDZ012>016-024>037-041>051-057-063-072>074-051700-
SOUTHWEST AND SOUTH CENTRAL SOUTH DAKOTA

CITY           SKY/WX    TMP DP  RH WIND       PRES   REMARKS
RAPID CTY ARPT MOSUNNY   78  65  63 N18G25    29.83R
PIERRE         PTSUNNY   80  69  69 E8        29.75R
CUSTER         MOSUNNY   79  57  46 W10       29.96R
ELLSWORTH AFB  PTSUNNY   77  65  66 NE10      29.83R
PHILIP         MOSUNNY   83  67  58 NW14      29.79R
PINE RIDGE     MOSUNNY   83  67  58 S8        29.79S
WINNER         FAIR      86  66  51 S17       29.76F
$$

SDZ004>011-016>023-039-040-051700-
NORTHEAST SOUTH DAKOTA

CITY           SKY/WX    TMP DP  RH WIND       PRES   REMARKS
ABERDEEN       MOSUNNY   79  68  69 MISG      29.75S
WATERTOWN      MOSUNNY   81  65  58 S21G30    29.79S
BROOKINGS      SUNNY     79  66  65 S15G29    29.81F
SISSETON         N/A     84  64  50 SW16G25   29.74R
$$

SDZ017-020-022-023-036>040-048>070-051700-
SOUTHEAST SOUTH DAKOTA

CITY           SKY/WX    TMP DP  RH WIND       PRES   REMARKS
SIOUX FALLS    MOSUNNY   76  68  76 S18G25    29.82F
HURON          MOSUNNY   81  69  67 S18G30    29.75S
CHAMBERLAIN    SUNNY     79  70  74 SE16G22   29.76F
MITCHELL       SUNNY     83  68  60 S21G32    29.77F
YANKTON        MOSUNNY   82  64  54 S17G24    29.80F
$$

ABBREVIATIONS USED IN REMARKS
   TC - TEMPERATURE IN CELSIUS
  WCI - WIND CHILL INDEX
   HX - HEAT INDEX
  VSB - VISIBILITY




USA.gov is the U.S. government's official web portal to all federal, state and local government web resources and services.